Time,TemperatureF,DewpointF,PressureIn,WindDirection,WindDirectionDegrees,WindSpeedMPH,WindSpeedGustMPH,Humidity,HourlyPrecipIn,Conditions,Clouds,dailyrainin,SoftwareType,DateUTC
2013-05-04 00:00:00,37.0,34.8,29.85,North,0,0.0,0.0,91,0.00,,,0.00,WUHU21623XXSP,2013-05-04 05:00:00,
2013-05-04 00:05:00,37.2,34.6,29.85,North,0,0.0,0.0,91,0.00,,,0.00,WUHU21623XXSP,2013-05-04 05:05:00,
2013-05-04 00:10:00,37.0,34.6,29.85,North,0,0.0,0.0,91,0.00,,,0.00,WUHU21623XXSP,2013-05-04 05:10:00,
2013-05-04 00:15:00,37.0,34.6,29.86,North,0,0.0,0.0,91,0.00,,,0.00,WUHU21623XXSP,2013-05-04 05:15:00,
2013-05-04 00:20:00,37.0,34.6,29.86,North,0,0.0,0.0,91,0.00,,,0.00,WUHU21623XXSP,2013-05-04 05:20:00,
2013-05-04 00:25:00,37.0,34.6,29.85,North,0,0.0,0.0,91,0.00,,,0.00,WUHU21623XXSP,2013-05-04 05:25:00,
2013-05-04 00:30:00,37.0,34.6,29.86,North,0,0.0,0.0,91,0.00,,,0.00,WUHU21623XXSP,2013-05-04 05:30:00,
2013-05-04 00:35:00,37.0,34.6,29.85,North,0,0.0,0.0,91,0.00,,,0.00,WUHU21623XXSP,2013-05-04 05:35:00,
2013-05-04 00:40:00,37.2,34.8,29.86,North,0,0.0,0.0,91,0.00,,,0.00,WUHU21623XXSP,2013-05-04 05:40:00,
2013-05-04 00:45:00,37.2,34.8,29.85,North,0,0.0,0.0,91,0.00,,,0.00,WUHU21623XXSP,2013-05-04 05:45:00,
2013-05-04 00:50:00,37.2,34.8,29.86,North,0,0.0,0.0,91,0.00,,,0.00,WUHU21623XXSP,2013-05-04 05:50:00,
2013-05-04 00:56:00,37.2,34.8,29.85,North,0,0.0,0.0,91,0.00,,,0.00,WUHU21623XXSP,2013-05-04 05:56:00,
2013-05-04 01:01:00,37.2,34.8,29.85,North,0,0.0,0.0,91,0.00,,,0.00,WUHU21623XXSP,2013-05-04 06:01:00,
2013-05-04 01:06:00,37.2,34.8,29.84,North,0,0.0,0.0,91,0.00,,,0.00,WUHU21623XXSP,2013-05-04 06:06:00,
2013-05-04 01:11:00,37.0,34.6,29.84,North,0,0.0,0.0,91,0.00,,,0.00,WUHU21623XXSP,2013-05-04 06:11:00,
2013-05-04 01:16:00,37.0,34.6,29.84,North,0,0.0,0.0,91,0.00,,,0.00,WUHU21623XXSP,2013-05-04 06:16:00,
2013-05-04 01:21:00,37.0,34.6,29.84,North,0,0.0,0.0,91,0.00,,,0.00,WUHU21623XXSP,2013-05-04 06:21:00,
2013-05-04 01:26:00,37.0,34.6,29.84,North,0,0.0,0.0,91,0.00,,,0.00,WUHU21623XXSP,2013-05-04 06:26:00,
2013-05-04 01:31:00,37.2,34.8,29.84,North,0,0.0,0.0,91,0.00,,,0.00,WUHU21623XXSP,2013-05-04 06:31:00,
2013-05-04 01:36:00,37.2,34.8,29.84,North,0,0.0,0.0,91,0.00,,,0.00,WUHU21623XXSP,2013-05-04 06:36:00,
2013-05-04 01:41:00,37.2,34.8,29.84,North,0,0.0,0.0,91,0.00,,,0.00,WUHU21623XXSP,2013-05-04 06:41:00,
2013-05-04 01:46:00,37.2,34.8,29.84,North,0,0.0,0.0,91,0.00,,,0.00,WUHU21623XXSP,2013-05-04 06:46:00,
2013-05-04 01:51:00,37.2,34.8,29.84,North,0,0.0,0.0,91,0.00,,,0.00,WUHU21623XXSP,2013-05-04 06:51:00,
2013-05-04 01:56:00,37.2,34.8,29.84,North,0,0.0,0.0,91,0.00,,,0.00,WUHU21623XXSP,2013-05-04 06:56:00,
2013-05-04 02:01:00,37.2,34.8,29.84,North,0,0.0,0.0,91,0.00,,,0.00,WUHU21623XXSP,2013-05-04 07:01:00,
2013-05-04 02:06:00,37.2,34.8,29.84,North,0,0.0,0.0,91,0.00,,,0.00,WUHU21623XXSP,2013-05-04 07:06:00,
2013-05-04 02:11:00,37.2,34.8,29.84,North,0,0.0,0.0,91,0.00,,,0.00,WUHU21623XXSP,2013-05-04 07:11:00,
2013-05-04 02:16:00,37.2,34.8,29.84,North,0,0.0,0.0,91,0.00,,,0.00,WUHU21623XXSP,2013-05-04 07:16:00,
2013-05-04 02:21:00,37.2,34.8,29.84,North,0,0.0,0.0,91,0.00,,,0.00,WUHU21623XXSP,2013-05-04 07:21:00,
2013-05-04 02:26:00,37.2,34.8,29.84,North,0,0.0,0.0,91,0.00,,,0.00,WUHU21623XXSP,2013-05-04 07:26:00,
2013-05-04 02:31:00,37.2,34.8,29.84,North,0,0.0,0.0,91,0.00,,,0.00,WUHU21623XXSP,2013-05-04 07:31:00,
2013-05-04 02:36:00,37.2,34.8,29.83,North,0,0.0,0.0,91,0.00,,,0.00,WUHU21623XXSP,2013-05-04 07:36:00,
2013-05-04 02:42:00,37.2,34.8,29.83,North,0,0.0,0.0,91,0.00,,,0.00,WUHU21623XXSP,2013-05-04 07:42:00,
2013-05-04 02:48:00,37.2,34.8,29.83,North,0,0.0,0.0,91,0.00,,,0.00,WUHU21623XXSP,2013-05-04 07:48:00,
2013-05-04 02:53:00,37.2,34.8,29.83,North,0,0.0,0.0,91,0.00,,,0.00,WUHU21623XXSP,2013-05-04 07:53:00,
2013-05-04 02:58:00,37.2,34.8,29.83,North,0,0.0,0.0,91,0.00,,,0.00,WUHU21623XXSP,2013-05-04 07:58:00,
2013-05-04 03:03:00,37.2,34.8,29.84,North,0,0.0,0.0,91,0.00,,,0.00,WUHU21623XXSP,2013-05-04 08:03:00,
2013-05-04 03:08:00,37.4,35.0,29.84,North,0,0.0,0.0,91,0.00,,,0.00,WUHU21623XXSP,2013-05-04 08:08:00,
2013-05-04 03:13:00,37.4,35.0,29.84,North,0,0.0,0.0,91,0.00,,,0.00,WUHU21623XXSP,2013-05-04 08:13:00,
2013-05-04 03:18:00,37.4,35.0,29.84,North,0,0.0,0.0,91,0.00,,,0.00,WUHU21623XXSP,2013-05-04 08:18:00,
2013-05-04 03:23:00,37.4,35.0,29.84,North,0,0.0,0.0,91,0.00,,,0.00,WUHU21623XXSP,2013-05-04 08:23:00,
2013-05-04 03:28:00,37.4,35.0,29.84,North,0,0.0,0.0,91,0.00,,,0.00,WUHU21623XXSP,2013-05-04 08:28:00,
2013-05-04 03:33:00,37.2,34.8,29.84,North,0,0.0,0.0,91,0.00,,,0.00,WUHU21623XXSP,2013-05-04 08:33:00,
2013-05-04 03:38:00,37.2,34.8,29.84,North,0,0.0,0.0,91,0.00,,,0.00,WUHU21623XXSP,2013-05-04 08:38:00,
2013-05-04 03:43:00,37.2,34.8,29.84,North,0,0.0,0.0,91,0.00,,,0.00,WUHU21623XXSP,2013-05-04 08:43:00,
2013-05-04 03:48:00,37.2,34.8,29.84,North,0,0.0,0.0,91,0.00,,,0.00,WUHU21623XXSP,2013-05-04 08:48:00,
2013-05-04 03:53:00,37.2,34.8,29.85,North,0,0.0,0.0,91,0.00,,,0.00,WUHU21623XXSP,2013-05-04 08:53:00,
2013-05-04 03:58:00,37.2,34.8,29.84,North,0,0.0,0.0,91,0.00,,,0.00,WUHU21623XXSP,2013-05-04 08:58:00,
2013-05-04 04:03:00,37.2,34.8,29.85,North,0,0.0,0.0,91,0.00,,,0.00,WUHU21623XXSP,2013-05-04 09:03:00,
2013-05-04 04:08:00,37.2,34.8,29.86,North,0,0.0,0.0,91,0.00,,,0.00,WUHU21623XXSP,2013-05-04 09:08:00,
2013-05-04 04:13:00,37.4,35.0,29.86,North,0,0.0,0.0,91,0.00,,,0.00,WUHU21623XXSP,2013-05-04 09:13:00,
2013-05-04 04:18:00,37.6,35.0,29.86,North,0,0.0,0.0,91,0.00,,,0.00,WUHU21623XXSP,2013-05-04 09:18:00,
2013-05-04 04:24:00,37.6,35.4,29.86,North,0,0.0,0.0,92,0.00,,,0.00,WUHU21623XXSP,2013-05-04 09:24:00,
2013-05-04 04:29:00,37.6,35.1,29.86,North,0,0.0,0.0,91,0.00,,,0.00,WUHU21623XXSP,2013-05-04 09:29:00,
2013-05-04 04:34:00,37.6,35.1,29.86,North,0,0.0,0.0,91,0.00,,,0.00,WUHU21623XXSP,2013-05-04 09:34:00,
2013-05-04 04:39:00,37.6,35.4,29.86,North,0,0.0,0.0,92,0.00,,,0.00,WUHU21623XXSP,2013-05-04 09:39:00,
2013-05-04 04:44:00,37.6,35.1,29.86,North,0,0.0,0.0,91,0.00,,,0.00,WUHU21623XXSP,2013-05-04 09:44:00,
2013-05-04 04:49:00,37.6,35.1,29.86,North,0,0.0,0.0,91,0.00,,,0.00,WUHU21623XXSP,2013-05-04 09:49:00,
2013-05-04 04:54:00,37.6,35.1,29.86,North,0,0.0,0.0,91,0.00,,,0.00,WUHU21623XXSP,2013-05-04 09:54:00,
2013-05-04 04:59:00,37.6,35.1,29.86,North,0,0.0,0.0,91,0.00,,,0.00,WUHU21623XXSP,2013-05-04 09:59:00,
2013-05-04 05:04:00,37.6,35.4,29.87,North,0,0.0,0.0,92,0.00,,,0.00,WUHU21623XXSP,2013-05-04 10:04:00,
2013-05-04 05:09:00,37.8,35.1,29.86,North,0,0.0,0.0,91,0.00,,,0.00,WUHU21623XXSP,2013-05-04 10:09:00,
2013-05-04 05:14:00,37.8,35.3,29.86,North,0,0.0,0.0,91,0.00,,,0.00,WUHU21623XXSP,2013-05-04 10:14:00,
2013-05-04 05:19:00,37.8,35.3,29.86,North,0,0.0,0.0,91,0.00,,,0.00,WUHU21623XXSP,2013-05-04 10:19:00,
2013-05-04 05:24:00,37.8,35.3,29.87,North,0,0.0,0.0,91,0.00,,,0.00,WUHU21623XXSP,2013-05-04 10:24:00,
2013-05-04 05:29:00,37.8,35.3,29.87,North,0,0.0,0.0,91,0.00,,,0.00,WUHU21623XXSP,2013-05-04 10:29:00,
2013-05-04 05:34:00,37.8,35.3,29.87,North,0,0.0,0.0,91,0.00,,,0.00,WUHU21623XXSP,2013-05-04 10:34:00,
2013-05-04 05:39:00,37.8,35.5,29.87,North,0,0.0,0.0,91,0.00,,,0.00,WUHU21623XXSP,2013-05-04 10:39:00,
2013-05-04 05:44:00,37.9,35.5,29.87,North,0,0.0,0.0,91,0.00,,,0.00,WUHU21623XXSP,2013-05-04 10:44:00,
2013-05-04 05:49:00,37.9,35.5,29.87,North,0,0.0,0.0,91,0.00,,,0.00,WUHU21623XXSP,2013-05-04 10:49:00,
2013-05-04 05:54:00,37.9,35.5,29.87,North,0,0.0,0.0,91,0.00,,,0.00,WUHU21623XXSP,2013-05-04 10:54:00,
2013-05-04 05:59:00,37.9,35.5,29.87,North,0,0.0,0.0,91,0.00,,,0.00,WUHU21623XXSP,2013-05-04 10:59:00,
2013-05-04 06:04:00,37.9,35.5,29.87,North,0,0.0,0.0,91,0.00,,,0.00,WUHU21623XXSP,2013-05-04 11:04:00,
2013-05-04 06:09:00,37.9,35.5,29.87,North,0,0.0,0.0,91,0.00,,,0.00,WUHU21623XXSP,2013-05-04 11:09:00,
2013-05-04 06:14:00,37.9,35.5,29.88,North,0,0.0,0.0,91,0.00,,,0.00,WUHU21623XXSP,2013-05-04 11:14:00,
2013-05-04 06:19:00,37.9,35.5,29.88,North,0,0.0,0.0,91,0.00,,,0.00,WUHU21623XXSP,2013-05-04 11:19:00,
2013-05-04 06:24:00,37.9,35.5,29.88,North,0,0.0,0.0,91,0.00,,,0.00,WUHU21623XXSP,2013-05-04 11:24:00,
2013-05-04 06:29:00,37.9,35.5,29.88,North,0,0.0,0.0,91,0.00,,,0.00,WUHU21623XXSP,2013-05-04 11:29:00,
2013-05-04 06:34:00,37.9,35.5,29.88,North,0,0.0,0.0,91,0.00,,,0.00,WUHU21623XXSP,2013-05-04 11:34:00,
2013-05-04 06:39:00,38.1,35.7,29.89,North,0,0.0,0.0,91,0.00,,,0.00,WUHU21623XXSP,2013-05-04 11:39:00,
2013-05-04 06:44:00,38.3,35.9,29.89,North,0,0.0,0.0,91,0.00,,,0.00,WUHU21623XXSP,2013-05-04 11:44:00,
2013-05-04 06:49:00,38.3,35.9,29.89,North,0,0.0,0.0,91,0.00,,,0.00,WUHU21623XXSP,2013-05-04 11:49:00,
2013-05-04 06:54:00,38.5,36.0,29.89,North,0,0.0,0.0,91,0.00,,,0.00,WUHU21623XXSP,2013-05-04 11:54:00,
2013-05-04 06:59:00,38.5,36.0,29.89,North,0,0.0,0.0,91,0.00,,,0.00,WUHU21623XXSP,2013-05-04 11:59:00,
2013-05-04 07:04:00,38.5,36.0,29.89,North,0,0.0,0.0,91,0.00,,,0.00,WUHU21623XXSP,2013-05-04 12:04:00,
2013-05-04 07:09:00,38.5,36.0,29.89,North,0,0.0,0.0,91,0.00,,,0.00,WUHU21623XXSP,2013-05-04 12:09:00,
2013-05-04 07:15:00,38.8,36.4,29.89,North,0,0.0,0.0,91,0.00,,,0.00,WUHU21623XXSP,2013-05-04 12:15:00,
2013-05-04 07:20:00,38.8,36.4,29.90,North,0,0.0,0.0,92,0.00,,,0.00,WUHU21623XXSP,2013-05-04 12:20:00,
2013-05-04 07:25:00,38.8,36.9,29.90,North,0,0.0,0.0,92,0.00,,,0.00,WUHU21623XXSP,2013-05-04 12:25:00,
2013-05-04 07:30:00,39.0,36.7,29.90,North,0,0.0,0.0,92,0.00,,,0.00,WUHU21623XXSP,2013-05-04 12:30:00,
2013-05-04 07:35:00,39.0,36.9,29.91,North,0,0.0,0.0,92,0.00,,,0.00,WUHU21623XXSP,2013-05-04 12:35:00,
2013-05-04 07:40:00,39.2,37.0,29.91,North,0,0.0,0.0,92,0.00,,,0.00,WUHU21623XXSP,2013-05-04 12:40:00,
2013-05-04 07:45:00,39.4,37.2,29.92,North,0,0.0,0.0,92,0.00,,,0.00,WUHU21623XXSP,2013-05-04 12:45:00,
2013-05-04 07:50:00,39.7,37.1,29.92,North,0,0.0,0.0,91,0.00,,,0.00,WUHU21623XXSP,2013-05-04 12:50:00,
2013-05-04 07:55:00,39.9,37.3,29.91,North,0,0.0,0.0,91,0.00,,,0.00,WUHU21623XXSP,2013-05-04 12:55:00,
2013-05-04 08:00:00,40.1,37.5,29.92,North,0,0.0,0.0,91,0.00,,,0.00,WUHU21623XXSP,2013-05-04 13:00:00,
2013-05-04 08:05:00,40.6,37.9,29.92,North,0,0.0,0.0,91,0.00,,,0.00,WUHU21623XXSP,2013-05-04 13:05:00,
2013-05-04 08:08:00,40.6,38.2,29.92,North,0,0.0,0.0,91,0.00,,,0.00,WUHU21623XXSP,2013-05-04 13:08:00,
2013-05-04 08:13:00,40.8,38.4,29.92,North,0,0.0,0.0,91,0.00,,,0.00,WUHU21623XXSP,2013-05-04 13:13:00,
2013-05-04 08:18:00,40.8,38.4,29.92,North,0,0.0,0.0,91,0.00,,,0.00,WUHU21623XXSP,2013-05-04 13:18:00,
2013-05-04 08:23:00,40.8,38.1,29.92,North,0,0.0,0.0,90,0.00,,,0.00,WUHU21623XXSP,2013-05-04 13:23:00,
2013-05-04 08:28:00,41.0,38.1,29.93,North,0,0.0,0.0,90,0.00,,,0.00,WUHU21623XXSP,2013-05-04 13:28:00,
2013-05-04 08:33:00,41.2,38.8,29.92,North,0,0.0,0.0,91,0.00,,,0.00,WUHU21623XXSP,2013-05-04 13:33:00,
2013-05-04 08:38:00,41.2,38.5,29.93,North,0,0.0,0.0,90,0.00,,,0.00,WUHU21623XXSP,2013-05-04 13:38:00,
2013-05-04 08:43:00,41.5,38.8,29.92,North,0,0.0,0.0,90,0.00,,,0.00,WUHU21623XXSP,2013-05-04 13:43:00,
2013-05-04 08:48:00,41.7,38.7,29.92,North,0,0.0,0.0,89,0.00,,,0.00,WUHU21623XXSP,2013-05-04 13:48:00,
2013-05-04 08:53:00,41.9,38.9,29.93,North,0,0.0,0.0,89,0.00,,,0.00,WUHU21623XXSP,2013-05-04 13:53:00,
2013-05-04 08:58:00,42.3,39.1,29.93,North,0,0.0,0.0,89,0.00,,,0.00,WUHU21623XXSP,2013-05-04 13:58:00,
2013-05-04 09:03:00,42.4,39.4,29.93,North,0,0.0,0.0,89,0.00,,,0.00,WUHU21623XXSP,2013-05-04 14:03:00,
2013-05-04 09:08:00,42.4,39.4,29.93,North,0,0.0,0.0,88,0.00,,,0.00,WUHU21623XXSP,2013-05-04 14:08:00,
2013-05-04 09:13:00,42.4,39.1,29.93,North,0,0.0,0.0,88,0.00,,,0.00,WUHU21623XXSP,2013-05-04 14:13:00,
2013-05-04 09:18:00,42.4,39.1,29.93,North,0,0.0,0.0,88,0.00,,,0.00,WUHU21623XXSP,2013-05-04 14:18:00,
2013-05-04 09:23:00,42.6,39.3,29.92,North,0,0.0,0.0,88,0.00,,,0.00,WUHU21623XXSP,2013-05-04 14:23:00,
2013-05-04 09:28:00,43.0,39.4,29.93,North,0,0.0,0.0,87,0.00,,,0.00,WUHU21623XXSP,2013-05-04 14:28:00,
2013-05-04 09:33:00,43.3,39.5,29.92,North,0,0.0,0.0,87,0.00,,,0.00,WUHU21623XXSP,2013-05-04 14:33:00,
2013-05-04 09:38:00,43.5,39.9,29.92,North,0,0.0,0.0,87,0.00,,,0.00,WUHU21623XXSP,2013-05-04 14:38:00,
2013-05-04 09:43:00,43.9,40.1,29.93,North,0,0.0,0.0,86,0.00,,,0.00,WUHU21623XXSP,2013-05-04 14:43:00,
2013-05-04 09:48:00,44.2,40.3,29.93,North,0,0.0,0.0,86,0.00,,,0.00,WUHU21623XXSP,2013-05-04 14:48:00,
2013-05-04 09:53:00,45.0,40.7,29.93,North,0,0.0,0.0,85,0.00,,,0.00,WUHU21623XXSP,2013-05-04 14:53:00,
2013-05-04 09:58:00,45.1,40.7,29.93,North,0,0.0,0.0,85,0.00,,,0.00,WUHU21623XXSP,2013-05-04 14:58:00,
2013-05-04 10:03:00,46.2,42.0,29.94,North,0,0.0,0.0,85,0.00,,,0.00,WUHU21623XXSP,2013-05-04 15:03:00,
2013-05-04 10:08:00,47.1,42.5,29.94,North,0,0.0,0.0,84,0.00,,,0.00,WUHU21623XXSP,2013-05-04 15:08:00,
2013-05-04 10:13:00,47.1,41.9,29.94,North,0,0.0,0.0,82,0.00,,,0.00,WUHU21623XXSP,2013-05-04 15:13:00,
2013-05-04 10:18:00,46.9,41.4,29.94,North,0,0.0,0.0,81,0.00,,,0.00,WUHU21623XXSP,2013-05-04 15:18:00,
2013-05-04 10:23:00,46.8,41.0,29.94,North,0,0.0,0.0,80,0.00,,,0.00,WUHU21623XXSP,2013-05-04 15:23:00,
2013-05-04 10:28:00,46.6,40.5,29.94,North,0,0.0,0.0,79,0.00,,,0.00,WUHU21623XXSP,2013-05-04 15:28:00,
2013-05-04 10:33:00,46.8,40.8,29.94,North,0,0.0,0.0,80,0.00,,,0.00,WUHU21623XXSP,2013-05-04 15:33:00,
2013-05-04 10:38:00,47.1,41.3,29.94,North,0,0.0,0.0,79,0.00,,,0.00,WUHU21623XXSP,2013-05-04 15:38:00,
2013-05-04 10:43:00,48.0,41.3,29.94,North,0,0.0,0.0,79,0.00,,,0.00,WUHU21623XXSP,2013-05-04 15:43:00,
2013-05-04 10:48:00,48.4,41.4,29.94,North,0,0.0,0.0,77,0.00,,,0.00,WUHU21623XXSP,2013-05-04 15:48:00,
2013-05-04 10:53:00,48.4,41.4,29.94,North,0,0.0,0.0,77,0.00,,,0.00,WUHU21623XXSP,2013-05-04 15:53:00,
2013-05-04 10:58:00,48.6,41.3,29.94,North,0,0.0,0.0,76,0.00,,,0.00,WUHU21623XXSP,2013-05-04 15:58:00,
2013-05-04 11:03:00,48.0,39.7,29.94,North,0,0.0,0.0,73,0.00,,,0.00,WUHU21623XXSP,2013-05-04 16:03:00,
2013-05-04 11:08:00,47.5,39.2,29.94,North,0,0.0,0.0,73,0.00,,,0.00,WUHU21623XXSP,2013-05-04 16:08:00,
2013-05-04 11:13:00,47.3,39.4,29.94,North,0,0.0,0.0,74,0.00,,,0.00,WUHU21623XXSP,2013-05-04 16:13:00,
2013-05-04 11:18:00,47.3,39.4,29.94,North,0,0.0,0.0,74,0.00,,,0.00,WUHU21623XXSP,2013-05-04 16:18:00,
2013-05-04 11:23:00,46.9,39.1,29.94,North,0,0.0,0.0,74,0.00,,,0.00,WUHU21623XXSP,2013-05-04 16:23:00,
2013-05-04 11:28:00,46.9,39.4,29.94,North,0,0.0,0.0,75,0.00,,,0.00,WUHU21623XXSP,2013-05-04 16:28:00,
2013-05-04 11:33:00,46.9,39.4,29.94,North,0,0.0,0.0,75,0.00,,,0.00,WUHU21623XXSP,2013-05-04 16:33:00,
2013-05-04 11:38:00,46.9,39.4,29.94,North,0,0.0,0.0,75,0.00,,,0.00,WUHU21623XXSP,2013-05-04 16:38:00,
2013-05-04 11:43:00,47.1,39.4,29.94,North,0,0.0,0.0,75,0.00,,,0.00,WUHU21623XXSP,2013-05-04 16:43:00,
2013-05-04 11:48:00,47.1,39.9,29.94,North,0,0.0,0.0,75,0.00,,,0.00,WUHU21623XXSP,2013-05-04 16:48:00,
2013-05-04 11:53:00,48.0,40.4,29.94,North,0,0.0,0.0,75,0.00,,,0.00,WUHU21623XXSP,2013-05-04 16:53:00,
2013-05-04 11:58:00,48.4,40.2,29.95,North,0,0.0,0.0,74,0.00,,,0.00,WUHU21623XXSP,2013-05-04 16:58:00,
2013-05-04 12:03:00,48.2,40.2,29.95,North,0,0.0,0.0,73,0.00,,,0.00,WUHU21623XXSP,2013-05-04 17:03:00,
2013-05-04 12:08:00,47.8,39.5,29.95,North,0,0.0,0.0,73,0.00,,,0.00,WUHU21623XXSP,2013-05-04 17:08:00,
2013-05-04 12:13:00,47.5,39.2,29.95,North,0,0.0,0.0,74,0.00,,,0.00,WUHU21623XXSP,2013-05-04 17:13:00,
2013-05-04 12:18:00,47.5,39.6,29.94,North,0,0.0,0.0,74,0.00,,,0.00,WUHU21623XXSP,2013-05-04 17:18:00,
2013-05-04 12:23:00,47.5,39.6,29.94,North,0,0.0,0.0,74,0.00,,,0.00,WUHU21623XXSP,2013-05-04 17:23:00,
2013-05-04 12:28:00,47.7,39.6,29.95,North,0,0.0,0.0,74,0.00,,,0.00,WUHU21623XXSP,2013-05-04 17:28:00,
2013-05-04 12:33:00,47.7,40.1,29.95,North,0,0.0,0.0,75,0.00,,,0.00,WUHU21623XXSP,2013-05-04 17:33:00,
2013-05-04 12:38:00,47.8,40.2,29.95,North,0,0.0,0.0,75,0.00,,,0.00,WUHU21623XXSP,2013-05-04 17:38:00,
2013-05-04 12:43:00,47.8,40.2,29.95,North,0,0.0,0.0,75,0.00,,,0.00,WUHU21623XXSP,2013-05-04 17:43:00,
2013-05-04 12:48:00,47.8,39.9,29.95,North,0,0.0,0.0,74,0.00,,,0.00,WUHU21623XXSP,2013-05-04 17:48:00,
2013-05-04 12:53:00,47.8,39.9,29.95,North,0,0.0,0.0,74,0.00,,,0.00,WUHU21623XXSP,2013-05-04 17:53:00,
2013-05-04 12:58:00,47.8,39.9,29.95,North,0,0.0,0.0,74,0.00,,,0.00,WUHU21623XXSP,2013-05-04 17:58:00,
2013-05-04 13:03:00,47.8,39.9,29.94,North,0,0.0,0.0,74,0.00,,,0.00,WUHU21623XXSP,2013-05-04 18:03:00,
2013-05-04 13:08:00,48.4,39.9,29.95,North,0,0.0,0.0,72,0.00,,,0.00,WUHU21623XXSP,2013-05-04 18:08:00,
2013-05-04 13:13:00,48.4,39.7,29.95,North,0,0.0,0.0,72,0.00,,,0.00,WUHU21623XXSP,2013-05-04 18:13:00,
2013-05-04 13:18:00,48.6,40.2,29.95,North,0,0.0,0.0,73,0.00,,,0.00,WUHU21623XXSP,2013-05-04 18:18:00,
2013-05-04 13:23:00,48.4,40.0,29.95,North,0,0.0,0.0,73,0.00,,,0.00,WUHU21623XXSP,2013-05-04 18:23:00,
2013-05-04 13:28:00,48.4,40.0,29.95,North,0,0.0,0.0,73,0.00,,,0.00,WUHU21623XXSP,2013-05-04 18:28:00,
2013-05-04 13:33:00,48.4,40.0,29.95,North,0,0.0,0.0,73,0.00,,,0.00,WUHU21623XXSP,2013-05-04 18:33:00,
2013-05-04 13:38:00,48.4,40.0,29.96,North,0,0.0,0.0,73,0.00,,,0.00,WUHU21623XXSP,2013-05-04 18:38:00,
2013-05-04 13:43:00,48.4,40.0,29.96,North,0,0.0,0.0,73,0.00,,,0.00,WUHU21623XXSP,2013-05-04 18:43:00,
2013-05-04 13:48:00,48.4,40.0,29.96,North,0,0.0,0.0,73,0.00,,,0.00,WUHU21623XXSP,2013-05-04 18:48:00,
2013-05-04 13:53:00,48.4,40.0,29.96,North,0,0.0,0.0,73,0.00,,,0.00,WUHU21623XXSP,2013-05-04 18:53:00,
2013-05-04 13:58:00,48.4,40.0,29.96,North,0,0.0,0.0,73,0.00,,,0.00,WUHU21623XXSP,2013-05-04 18:58:00,
2013-05-04 14:03:00,48.4,40.0,29.96,North,0,0.0,0.0,73,0.00,,,0.00,WUHU21623XXSP,2013-05-04 19:03:00,
2013-05-04 14:08:00,48.4,40.0,29.96,North,0,0.0,0.0,73,0.00,,,0.00,WUHU21623XXSP,2013-05-04 19:08:00,
2013-05-04 23:24:00,47.5,44.8,30.04,North,0,0.0,0.0,90,0.00,,,0.00,WUHU21623XXSP,2013-05-05 04:24:00,
2013-05-04 23:27:00,47.5,44.8,30.04,North,0,0.0,0.0,90,0.00,,,0.00,WUHU21623XXSP,2013-05-05 04:27:00,
2013-05-04 23:29:00,47.3,44.6,30.04,North,0,0.0,0.0,90,0.00,,,0.00,WUHU21623XXSP,2013-05-05 04:29:00,
2013-05-04 23:32:00,47.3,44.9,30.04,North,0,0.0,0.0,91,0.00,,,0.00,WUHU21623XXSP,2013-05-05 04:32:00,
2013-05-04 23:37:00,47.1,44.7,30.04,North,0,0.0,0.0,91,0.00,,,0.00,WUHU21623XXSP,2013-05-05 04:37:00,
2013-05-04 23:42:00,46.8,44.3,30.04,North,0,0.0,0.0,91,0.00,,,0.00,WUHU21623XXSP,2013-05-05 04:42:00,
2013-05-04 23:47:00,46.4,43.7,30.04,North,0,0.0,0.0,90,0.00,,,0.00,WUHU21623XXSP,2013-05-05 04:47:00,
2013-05-04 23:52:00,46.4,43.7,30.04,North,0,0.0,0.0,90,0.00,,,0.00,WUHU21623XXSP,2013-05-05 04:52:00,
2013-05-04 23:57:00,46.4,43.7,30.04,North,0,0.0,0.0,89,0.00,,,0.00,WUHU21623XXSP,2013-05-05 04:57:00,